Flag for Germany Weather past 2 weeks in Fürth, Bavaria, Germany

Now
68 °F

Broken clouds.


Feels Like: 68 °F
Forecast: 55 / 73 °F
Wind: 9 mph from Southwest

Location: Nuernberg

Current Time: Aug 29, 2014 at 2:17:39 PM

Latest Report: Aug 29, 2014 at 1:50 PM


Visibility: N/A

Pressure: 30.04 "Hg

Humidity: 69%

Dew point: 57 °F

Location of FürthLocation

Historic Weather in Fürth — Graph

°F

Fürth temperature yesterday

Maximum temperature yesterday: 73 °F (at 4:20 PM)
Minimum temperature yesterday: 45 °F (at 3:50 AM)
Average temperature yesterday: 60 °F

Past Weeks' High & Low Weather Summary

 TemperatureHumidityPressure
High73 °F (Aug 28, 4:20 PM)100% (Aug 15, 2:50 AM)30.12 "Hg (Aug 15, 2:50 AM)
Low41 °F (Aug 25, 6:20 AM)35% (Aug 22, 2:50 PM)29.68 "Hg (Aug 26, 6:50 AM)
Average58 °F76%29.97 "Hg
* Reported Aug 14 1:20 PM — Aug 29 1:20 PM, Fürth, Weather by CustomWeather, © 2014

Note: Actual official high and low records may vary slightly from our data, if they occured in-between our weather recording intervals... More about our weather records

Advertising

Fürth weather history for previous 24 hours

 ConditionsComfort  
Time TempWeatherWind HumidityBarometerVisibility
1:20 PM
Aug 29
68 °FBroken clouds.9 mph69%30.04 "HgN/A
12:50 PM68 °FBroken clouds.10 mph69%30.04 "HgN/A
12:20 PM68 °FBroken clouds.10 mph69%30.04 "HgN/A
11:50 AM68 °FBroken clouds.9 mph69%30.04 "HgN/A
11:20 AM68 °FPassing clouds.7 mph69%30.04 "HgN/A
10:50 AM66 °FPassing clouds.5 mph78%30.04 "HgN/A
10:20 AM66 °FPassing clouds.5 mph73%30.04 "HgN/A
9:50 AM64 °FPassing clouds.5 mph78%30.04 "HgN/A
9:20 AM64 °FPassing clouds.5 mph78%30.04 "HgN/A
8:50 AM64 °FPassing clouds.6 mph78%30.04 "HgN/A
8:20 AM63 °FSunny.5 mph83%30.04 "Hg10 mi
7:50 AM61 °FSunny.5 mph88%30.04 "Hg10 mi
7:20 AM57 °FClear.3 mph94%30.04 "Hg10 mi
6:50 AM57 °FClear.3 mph94%30.04 "Hg10 mi
6:20 AM59 °FPassing clouds.5 mph88%30.01 "HgN/A
5:50 AM59 °FClear.6 mph88%30.01 "Hg10 mi
5:20 AM59 °FClear.6 mph88%30.04 "Hg10 mi
4:50 AM57 °FClear.5 mph88%30.04 "Hg10 mi
4:20 AM57 °FClear.5 mph88%30.04 "Hg10 mi
3:20 AM59 °FClear.3 mph82%30.04 "Hg10 mi
2:50 AM61 °FClear.3 mph77%30.04 "Hg10 mi
2:20 AM61 °FClear.3 mph77%30.04 "Hg10 mi
1:50 AM61 °FClear.6 mph83%30.04 "Hg10 mi
1:20 AM61 °FClear.3 mph83%30.04 "Hg10 mi
12:50 AM61 °FClear.3 mph83%30.04 "Hg10 mi
12:20 AM63 °FClear.3 mph77%30.04 "Hg10 mi
11:50 PM
Aug 28
63 °FClear.5 mph77%30.04 "Hg10 mi
11:20 PM61 °FClear.6 mph83%30.04 "Hg10 mi
10:50 PM63 °FClear.5 mph77%30.04 "Hg10 mi
10:20 PM63 °FClear.5 mph77%30.04 "Hg10 mi
9:50 PM63 °FClear.5 mph77%30.04 "Hg10 mi
9:20 PM64 °FClear.3 mph73%30.04 "Hg10 mi
8:50 PM66 °FSunny.3 mph68%30.04 "Hg10 mi
8:20 PM66 °FSunny.3 mph64%30.04 "Hg10 mi
7:50 PM68 °FSunny.5 mph60%30.04 "Hg10 mi
7:20 PM70 °FPassing clouds.5 mph57%30.04 "HgN/A
6:50 PM70 °FPassing clouds.6 mph53%30.04 "HgN/A
6:20 PM72 °FPassing clouds.6 mph50%30.04 "HgN/A
5:20 PM73 °FPassing clouds.6 mph47%30.04 "HgN/A
4:50 PM73 °FPassing clouds.7 mph44%30.04 "HgN/A
4:20 PM73 °FPassing clouds.6 mph47%30.04 "HgN/A
3:50 PM70 °FSunny.3 mph50%30.07 "Hg10 mi
3:20 PM72 °FSunny.5 mph47%30.07 "Hg10 mi
2:50 PM72 °FSunny.3 mph47%30.07 "Hg10 mi
2:20 PM72 °FScattered clouds.5 mph50%30.07 "HgN/A
Weather by CustomWeather, © 2014

See weather overviewHow to use our weather pages